Time,TemperatureF,DewpointF,PressureIn,WindDirection,WindDirectionDegrees,WindSpeedMPH,WindSpeedGustMPH,Humidity,HourlyPrecipIn,Conditions,Clouds,dailyrainin,SoftwareType,DateUTC
2013-01-14 00:14:00,51.7,50.0,30.01,WSW,246,5.0,-999.0,93,-99.99,,,0.01,weatherlink.com 1.10,2013-01-14 05:14:00,
2013-01-14 00:29:00,52.7,51.0,30.00,WSW,239,1.0,-999.0,92,-99.99,,,0.01,weatherlink.com 1.10,2013-01-14 05:29:00,
2013-01-14 00:44:00,53.2,51.0,30.00,WSW,246,9.0,-999.0,92,-99.99,,,0.01,weatherlink.com 1.10,2013-01-14 05:44:00,
2013-01-14 00:59:00,53.4,51.0,30.00,WNW,286,8.0,-999.0,91,-99.99,,,0.01,weatherlink.com 1.10,2013-01-14 05:59:00,
2013-01-14 01:14:00,53.6,51.0,30.00,SW,225,9.0,-999.0,91,-99.99,,,0.01,weatherlink.com 1.10,2013-01-14 06:14:00,
2013-01-14 01:29:00,53.5,51.0,30.00,WSW,251,1.0,-999.0,92,-99.99,,,0.01,weatherlink.com 1.10,2013-01-14 06:29:00,
2013-01-14 01:44:00,53.5,51.0,30.00,SW,215,7.0,-999.0,92,-99.99,,,0.01,weatherlink.com 1.10,2013-01-14 06:44:00,
2013-01-14 01:59:00,53.5,51.0,30.01,SW,228,15.0,-999.0,92,-99.99,,,0.01,weatherlink.com 1.10,2013-01-14 06:59:00,
2013-01-14 02:15:00,53.5,51.0,30.00,WSW,238,2.0,-999.0,92,-99.99,,,0.01,weatherlink.com 1.10,2013-01-14 07:15:00,
2013-01-14 02:30:00,53.4,51.0,30.00,SW,233,7.0,-999.0,92,-99.99,,,0.01,weatherlink.com 1.10,2013-01-14 07:30:00,
2013-01-14 02:45:00,53.3,51.0,30.00,SW,232,8.0,-999.0,92,-99.99,,,0.01,weatherlink.com 1.10,2013-01-14 07:45:00,
2013-01-14 03:00:00,53.2,51.0,30.00,SW,223,1.0,-999.0,93,-99.99,,,0.01,weatherlink.com 1.10,2013-01-14 08:00:00,
2013-01-14 03:15:00,53.0,51.0,30.00,SW,233,0.0,-999.0,93,-99.99,,,0.01,weatherlink.com 1.10,2013-01-14 08:15:00,
2013-01-14 03:30:00,52.8,51.0,29.98,WSW,252,3.0,-999.0,94,-99.99,,,0.01,weatherlink.com 1.10,2013-01-14 08:30:00,
2013-01-14 03:45:00,52.7,51.0,29.97,SSW,209,1.0,-999.0,94,-99.99,,,0.01,weatherlink.com 1.10,2013-01-14 08:45:00,
2013-01-14 04:00:00,52.6,51.0,29.96,SW,223,7.0,-999.0,94,-99.99,,,0.01,weatherlink.com 1.10,2013-01-14 09:00:00,
2013-01-14 04:15:00,52.7,51.0,29.95,SW,214,8.0,-999.0,94,-99.99,,,0.01,weatherlink.com 1.10,2013-01-14 09:15:00,
2013-01-14 04:30:00,52.7,51.0,29.96,WSW,241,12.0,-999.0,94,-99.99,,,0.01,weatherlink.com 1.10,2013-01-14 09:30:00,
2013-01-14 04:45:00,52.7,51.0,29.95,WSW,256,7.0,-999.0,94,-99.99,,,0.01,weatherlink.com 1.10,2013-01-14 09:45:00,
2013-01-14 05:00:00,52.7,51.0,29.96,West,268,4.0,-999.0,94,-99.99,,,0.00,weatherlink.com 1.10,2013-01-14 10:00:00,
2013-01-14 05:16:00,52.6,51.0,29.96,WSW,244,1.0,-999.0,93,-99.99,,,0.00,weatherlink.com 1.10,2013-01-14 10:16:00,
2013-01-14 05:31:00,52.5,51.0,29.95,SW,233,10.0,-999.0,93,-99.99,,,0.00,weatherlink.com 1.10,2013-01-14 10:31:00,
2013-01-14 05:46:00,52.6,51.0,29.95,SW,229,2.0,-999.0,93,-99.99,,,0.00,weatherlink.com 1.10,2013-01-14 10:46:00,
2013-01-14 06:01:00,52.7,51.0,29.95,SW,225,3.0,-999.0,92,-99.99,,,0.00,weatherlink.com 1.10,2013-01-14 11:01:00,
2013-01-14 06:16:00,52.8,51.0,29.95,West,261,5.0,-999.0,92,-99.99,,,0.00,weatherlink.com 1.10,2013-01-14 11:16:00,
2013-01-14 06:31:00,52.9,51.0,29.94,SW,232,8.0,-999.0,92,-99.99,,,0.00,weatherlink.com 1.10,2013-01-14 11:31:00,
2013-01-14 06:46:00,53.0,51.0,29.93,SSW,206,13.0,-999.0,92,-99.99,,,0.00,weatherlink.com 1.10,2013-01-14 11:46:00,
2013-01-14 07:01:00,53.2,51.0,29.89,SE,146,8.0,-999.0,92,-99.99,,,0.00,weatherlink.com 1.10,2013-01-14 12:01:00,
2013-01-14 07:16:00,53.0,51.0,29.88,South,179,12.0,-999.0,92,-99.99,,,0.00,weatherlink.com 1.10,2013-01-14 12:16:00,
2013-01-14 07:31:00,52.4,51.0,29.87,SSW,193,8.0,-999.0,93,-99.99,,,0.00,weatherlink.com 1.10,2013-01-14 12:31:00,
2013-01-14 07:47:00,53.1,52.0,29.95,NW,309,8.0,-999.0,94,-99.99,,,0.00,weatherlink.com 1.10,2013-01-14 12:47:00,
2013-01-14 08:02:00,54.1,52.0,29.95,NW,306,8.0,-999.0,93,-99.99,,,0.00,weatherlink.com 1.10,2013-01-14 13:02:00,
2013-01-14 08:17:00,54.2,52.0,29.95,WNW,300,10.0,-999.0,92,-99.99,,,0.00,weatherlink.com 1.10,2013-01-14 13:17:00,
2013-01-14 08:32:00,54.1,52.0,29.96,WSW,257,5.0,-999.0,92,-99.99,,,0.00,weatherlink.com 1.10,2013-01-14 13:32:00,
2013-01-14 08:47:00,54.2,52.0,29.97,West,280,6.0,-999.0,92,-99.99,,,0.00,weatherlink.com 1.10,2013-01-14 13:47:00,
2013-01-14 09:02:00,54.4,52.0,29.99,WNW,302,4.0,-999.0,92,-99.99,,,0.00,weatherlink.com 1.10,2013-01-14 14:02:00,
2013-01-14 09:17:00,54.4,52.0,30.00,WNW,301,9.0,-999.0,91,-99.99,,,0.00,weatherlink.com 1.10,2013-01-14 14:17:00,
2013-01-14 09:32:00,54.6,52.0,30.00,SW,219,4.0,-999.0,91,-99.99,,,0.00,weatherlink.com 1.10,2013-01-14 14:32:00,
2013-01-14 09:47:00,54.9,52.0,30.00,WSW,243,2.0,-999.0,91,-99.99,,,0.00,weatherlink.com 1.10,2013-01-14 14:47:00,
2013-01-14 10:02:00,55.1,52.0,30.01,WNW,288,12.0,-999.0,90,-99.99,,,0.00,weatherlink.com 1.10,2013-01-14 15:02:00,
2013-01-14 10:17:00,55.5,52.0,30.01,West,262,5.0,-999.0,89,-99.99,,,0.00,weatherlink.com 1.10,2013-01-14 15:17:00,
2013-01-14 10:33:00,55.9,53.0,30.02,NW,314,6.0,-999.0,89,-99.99,,,0.00,weatherlink.com 1.10,2013-01-14 15:33:00,
2013-01-14 10:48:00,56.3,53.0,30.01,WNW,285,9.0,-999.0,87,-99.99,,,0.00,weatherlink.com 1.10,2013-01-14 15:48:00,
2013-01-14 11:03:00,56.6,53.0,30.01,West,264,10.0,-999.0,86,-99.99,,,0.00,weatherlink.com 1.10,2013-01-14 16:03:00,
2013-01-14 11:17:00,56.8,52.0,30.00,WSW,248,8.0,-999.0,84,-99.99,,,0.00,weatherlink.com 1.10,2013-01-14 16:17:00,
2013-01-14 11:33:00,57.4,52.0,29.99,WNW,301,9.0,-999.0,83,-99.99,,,0.00,weatherlink.com 1.10,2013-01-14 16:33:00,
2013-01-14 11:48:00,58.2,52.0,29.99,West,267,10.0,-999.0,81,-99.99,,,0.00,weatherlink.com 1.10,2013-01-14 16:48:00,
2013-01-14 12:03:00,58.4,52.0,29.99,West,279,3.0,-999.0,78,-99.99,,,0.00,weatherlink.com 1.10,2013-01-14 17:03:00,
2013-01-14 12:18:00,58.7,51.0,29.99,West,271,7.0,-999.0,76,-99.99,,,0.00,weatherlink.com 1.10,2013-01-14 17:18:00,
2013-01-14 12:33:00,59.5,50.0,29.99,WNW,300,5.0,-999.0,71,-99.99,,,0.00,weatherlink.com 1.10,2013-01-14 17:33:00,
2013-01-14 12:48:00,60.3,49.0,29.98,West,275,7.0,-999.0,66,-99.99,,,0.00,weatherlink.com 1.10,2013-01-14 17:48:00,
2013-01-14 13:04:00,60.9,48.0,29.98,WSW,254,2.0,-999.0,62,-99.99,,,0.00,weatherlink.com 1.10,2013-01-14 18:04:00,
2013-01-14 13:19:00,61.3,47.0,29.99,NW,326,6.0,-999.0,59,-99.99,,,0.00,weatherlink.com 1.10,2013-01-14 18:19:00,
2013-01-14 13:34:00,61.4,46.0,30.00,WNW,298,15.0,-999.0,58,-99.99,,,0.00,weatherlink.com 1.10,2013-01-14 18:34:00,
2013-01-14 13:49:00,61.7,45.0,30.01,WNW,300,11.0,-999.0,55,-99.99,,,0.00,weatherlink.com 1.10,2013-01-14 18:49:00,
2013-01-14 14:04:00,61.4,44.0,30.02,NW,309,6.0,-999.0,54,-99.99,,,0.00,weatherlink.com 1.10,2013-01-14 19:04:00,
2013-01-14 14:19:00,61.5,43.0,30.02,NW,313,10.0,-999.0,52,-99.99,,,0.00,weatherlink.com 1.10,2013-01-14 19:19:00,
2013-01-14 14:34:00,61.8,42.0,30.03,NW,305,6.0,-999.0,49,-99.99,,,0.00,weatherlink.com 1.10,2013-01-14 19:34:00,
2013-01-14 14:49:00,60.9,38.0,30.05,NW,320,17.0,-999.0,43,-99.99,,,0.00,weatherlink.com 1.10,2013-01-14 19:49:00,
2013-01-14 15:04:00,60.3,39.0,30.06,NW,311,12.0,-999.0,45,-99.99,,,0.00,weatherlink.com 1.10,2013-01-14 20:04:00,
2013-01-14 15:20:00,59.3,39.0,30.06,NNW,342,10.0,-999.0,47,-99.99,,,0.00,weatherlink.com 1.10,2013-01-14 20:20:00,
2013-01-14 15:35:00,58.9,38.0,30.07,WNW,299,6.0,-999.0,47,-99.99,,,0.00,weatherlink.com 1.10,2013-01-14 20:35:00,
2013-01-14 15:50:00,58.0,39.0,30.09,WNW,290,8.0,-999.0,49,-99.99,,,0.00,weatherlink.com 1.10,2013-01-14 20:50:00,
2013-01-14 16:05:00,57.2,39.0,30.09,NNW,327,13.0,-999.0,52,-99.99,,,0.00,weatherlink.com 1.10,2013-01-14 21:05:00,
2013-01-14 16:20:00,56.2,39.0,30.11,NNW,331,3.0,-999.0,52,-99.99,,,0.00,weatherlink.com 1.10,2013-01-14 21:20:00,
2013-01-14 16:35:00,55.3,39.0,30.11,NNW,343,6.0,-999.0,54,-99.99,,,0.00,weatherlink.com 1.10,2013-01-14 21:35:00,
2013-01-14 16:50:00,54.4,38.0,30.12,NW,317,6.0,-999.0,55,-99.99,,,0.00,weatherlink.com 1.10,2013-01-14 21:50:00,
2013-01-14 17:05:00,53.7,38.0,30.13,NNW,329,6.0,-999.0,55,-99.99,,,0.00,weatherlink.com 1.10,2013-01-14 22:05:00,
2013-01-14 17:20:00,53.1,38.0,30.13,NW,325,9.0,-999.0,57,-99.99,,,0.00,weatherlink.com 1.10,2013-01-14 22:20:00,
2013-01-14 17:35:00,52.6,35.0,30.14,North,9,4.0,-999.0,51,-99.99,,,0.00,weatherlink.com 1.10,2013-01-14 22:35:00,
2013-01-14 17:50:00,52.0,33.0,30.14,NNW,331,4.0,-999.0,49,-99.99,,,0.00,weatherlink.com 1.10,2013-01-14 22:50:00,
2013-01-14 18:06:00,51.2,32.0,30.14,NNW,332,5.0,-999.0,49,-99.99,,,0.00,weatherlink.com 1.10,2013-01-14 23:06:00,
2013-01-14 18:21:00,50.6,32.0,30.14,NNW,340,4.0,-999.0,49,-99.99,,,0.00,weatherlink.com 1.10,2013-01-14 23:21:00,
2013-01-14 18:36:00,49.9,31.0,30.14,NNW,346,5.0,-999.0,49,-99.99,,,0.00,weatherlink.com 1.10,2013-01-14 23:36:00,
2013-01-14 18:51:00,49.6,30.0,30.15,NW,324,5.0,-999.0,47,-99.99,,,0.00,weatherlink.com 1.10,2013-01-14 23:51:00,
2013-01-14 19:06:00,49.2,30.0,30.16,NW,321,6.0,-999.0,47,-99.99,,,0.00,weatherlink.com 1.10,2013-01-15 00:06:00,
2013-01-14 19:21:00,48.7,29.0,30.18,NNW,348,4.0,-999.0,47,-99.99,,,0.00,weatherlink.com 1.10,2013-01-15 00:21:00,
2013-01-14 19:36:00,48.2,28.0,30.18,NW,319,5.0,-999.0,45,-99.99,,,0.00,weatherlink.com 1.10,2013-01-15 00:36:00,
2013-01-14 19:51:00,47.7,28.0,30.18,North,350,6.0,-999.0,46,-99.99,,,0.00,weatherlink.com 1.10,2013-01-15 00:51:00,
2013-01-14 20:06:00,47.3,28.0,30.20,NNE,15,7.0,-999.0,47,-99.99,,,0.00,weatherlink.com 1.10,2013-01-15 01:06:00,
2013-01-14 20:21:00,46.8,28.0,30.18,North,5,6.0,-999.0,49,-99.99,,,0.00,weatherlink.com 1.10,2013-01-15 01:21:00,
2013-01-14 20:37:00,46.4,29.0,30.20,North,360,7.0,-999.0,51,-99.99,,,0.00,weatherlink.com 1.10,2013-01-15 01:37:00,
2013-01-14 20:52:00,46.0,29.0,30.20,NNW,340,6.0,-999.0,51,-99.99,,,0.00,weatherlink.com 1.10,2013-01-15 01:52:00,
2013-01-14 21:07:00,45.7,29.0,30.20,North,355,4.0,-999.0,52,-99.99,,,0.00,weatherlink.com 1.10,2013-01-15 02:07:00,
2013-01-14 21:22:00,45.2,29.0,30.21,NNE,15,7.0,-999.0,53,-99.99,,,0.00,weatherlink.com 1.10,2013-01-15 02:22:00,
2013-01-14 21:37:00,44.9,29.0,30.20,NNW,340,9.0,-999.0,54,-99.99,,,0.00,weatherlink.com 1.10,2013-01-15 02:37:00,
2013-01-14 21:52:00,44.5,29.0,30.20,North,360,5.0,-999.0,55,-99.99,,,0.00,weatherlink.com 1.10,2013-01-15 02:52:00,
2013-01-14 22:07:00,44.1,29.0,30.21,NNW,342,4.0,-999.0,56,-99.99,,,0.00,weatherlink.com 1.10,2013-01-15 03:07:00,
2013-01-14 22:22:00,43.8,29.0,30.21,NNE,15,5.0,-999.0,56,-99.99,,,0.00,weatherlink.com 1.10,2013-01-15 03:22:00,
2013-01-14 22:37:00,43.4,28.0,30.23,NNW,333,7.0,-999.0,56,-99.99,,,0.00,weatherlink.com 1.10,2013-01-15 03:37:00,
2013-01-14 22:52:00,42.9,28.0,30.23,NNW,334,8.0,-999.0,55,-99.99,,,0.00,weatherlink.com 1.10,2013-01-15 03:52:00,
2013-01-14 23:08:00,42.7,28.0,30.25,NNW,348,13.0,-999.0,56,-99.99,,,0.00,weatherlink.com 1.10,2013-01-15 04:08:00,
2013-01-14 23:23:00,42.4,28.0,30.25,North,11,4.0,-999.0,56,-99.99,,,0.00,weatherlink.com 1.10,2013-01-15 04:23:00,
2013-01-14 23:38:00,42.2,28.0,30.26,NNW,335,2.0,-999.0,57,-99.99,,,0.00,weatherlink.com 1.10,2013-01-15 04:38:00,
2013-01-14 23:53:00,41.9,27.0,30.26,NNW,341,7.0,-999.0,57,-99.99,,,0.00,weatherlink.com 1.10,2013-01-15 04:53:00,